Weather History for KSNY - April, 2013

Change the Weather History Date:

Friday, April 26, 2013

  Actual Average Record
Temperature  
Mean Temperature 52 °F 51 °F  
Max Temperature 71 °F 66 °F 85 °F (1955)
Min Temperature 32 °F 37 °F 18 °F (1953)
Degree Days  
Heating Degree Days 13 14  
Month to date heating degree days 706 476  
Since 1 July heating degree days 6313 5861  
Cooling Degree Days 0 0  
Month to date cooling degree days 0 0  
Year to date cooling degree days 0 0  
Growing Degree Days 2 (Base 50)    
Moisture  
Dew Point 20 °F    
Average Humidity 35    
Maximum Humidity 56    
Minimum Humidity 14    
Precipitation  
Precipitation 0.00 in 0.07 in 1.31 in (1972)
Month to date precipitation 1.23 1.69  
Year to date precipitation 2.18 3.31  
Sea Level Pressure  
Sea Level Pressure 30.08 in    
Wind  
Wind Speed 10 mph (NNE)    
Max Wind Speed 22 mph    
Max Gust Speed 26 mph    
Visibility 10 miles    
Events Rain    
T = Trace of Precipitation, MM = Missing Value Source: NWS Daily Summary

Daily Weather History Graph

Daily Weather History Graph

Search for Another Location

Airport or City:

Trip Planner

Search our weather history database for the weather conditions in past years. The results will help you decide how hot, cold, wet, or windy it might be!

Date:

Astronomy

Apr. 26, 2013 Rise Set
Actual Time 5:56 AM MDT 7:43 PM MDT
Civil Twilight 5:26 AM MDT 8:13 PM MDT
Nautical Twilight 4:50 AM MDT 8:49 PM MDT
Astronomical Twilight 4:12 AM MDT 9:28 PM MDT
Moon 9:09 PM MDT (4/26) 6:24 AM MDT (4/26)
Length of Visible Light 14h 46m
Length of Day
13h 47m
Full, 99% of the Moon is Illuminated
Apr 26
Full
May 2
Last Quarter
May 9
New
May 17
First Quarter
May 24
Full

Hourly Weather History & Observations

Time (MDT) Temp. Windchill Dew Point Humidity Pressure Visibility Wind Dir Wind Speed Gust Speed Precip Events Conditions
1:53 AM 36.0 °F 29.6 °F 21.9 °F 57% 29.94 in 10.0 mi WNW 8.1 mph - N/A   Clear
2:53 AM 35.1 °F 27.4 °F 21.9 °F 59% 29.94 in 10.0 mi WNW 10.4 mph - N/A   Clear
3:53 AM 39.0 °F 31.8 °F 19.9 °F 46% 29.94 in 10.0 mi NNW 11.5 mph - N/A   Clear
4:53 AM 39.9 °F 32.5 °F 19.0 °F 43% 29.97 in 10.0 mi NW 12.7 mph - N/A   Clear
5:53 AM 37.0 °F 28.5 °F 19.9 °F 50% 30.00 in 10.0 mi NW 13.8 mph - N/A   Clear
6:53 AM 42.1 °F 36.1 °F 21.9 °F 45% 30.04 in 10.0 mi NNW 10.4 mph - N/A   Clear
7:53 AM 48.0 °F - 24.1 °F 39% 30.07 in 10.0 mi NNW 12.7 mph - N/A   Clear
8:53 AM 57.0 °F - 23.0 °F 27% 30.10 in 10.0 mi NNE 12.7 mph - N/A   Clear
9:53 AM 64.0 °F - 21.9 °F 20% 30.10 in 10.0 mi NNE 15.0 mph - N/A   Clear
10:53 AM 66.0 °F - 16.0 °F 15% 30.12 in 10.0 mi NNE 16.1 mph - 0.00 in Rain Light Rain
11:53 AM 68.0 °F - 19.0 °F 15% 30.12 in 10.0 mi NNE 15.0 mph 26.5 mph 0.00 in   Clear
12:53 PM 69.1 °F - 19.0 °F 15% 30.10 in 10.0 mi NNE 12.7 mph 23.0 mph N/A   Clear
1:53 PM 68.0 °F - 17.1 °F 14% 30.12 in 10.0 mi Variable 5.8 mph - N/A   Clear
2:53 PM 69.1 °F - 17.1 °F 14% 30.11 in 10.0 mi ENE 10.4 mph 19.6 mph N/A   Clear
3:53 PM 69.1 °F - 17.1 °F 14% 30.11 in 10.0 mi NNE 10.4 mph - N/A   Clear
4:53 PM 66.0 °F - 18.0 °F 16% 30.11 in 10.0 mi NE 8.1 mph - N/A   Partly Cloudy
5:53 PM 66.9 °F - 19.0 °F 16% 30.12 in 10.0 mi ENE 12.7 mph - N/A   Partly Cloudy
6:53 PM 64.0 °F - 21.0 °F 19% 30.12 in 10.0 mi East 8.1 mph - N/A   Partly Cloudy
7:53 PM 54.0 °F - 23.0 °F 30% 30.13 in 10.0 mi ESE 8.1 mph - N/A   Clear
8:53 PM 46.0 °F 41.9 °F 23.0 °F 40% 30.14 in 10.0 mi SE 8.1 mph - N/A   Clear
9:53 PM 42.1 °F 40.2 °F 21.9 °F 45% 30.15 in 10.0 mi SE 3.5 mph - N/A   Clear
10:53 PM 41.0 °F 35.8 °F 23.0 °F 49% 30.14 in 10.0 mi South 8.1 mph - N/A   Clear
11:53 PM 41.0 °F 36.4 °F 23.0 °F 49% 30.14 in 10.0 mi South 6.9 mph - N/A   Clear